GLOBALSTAR M082 [+]

Last updated on Fri Dec 29 2023 00:02:57 GMT+0000 (Coordinated Universal Time)

1 38042U 11080C 23361.88317081 -.00000078 00000+0 14298-3 0 9990 2 38042 52.0047 201.0313 0001732 88.5229 15.1745 12.62264962555811
UTC large
Height (km)
Speed (km/s)
/
Latitude / Longitude
Inclination (degrees)
Orbital Period (minutes)
Azimuth
Elevation
Range (km)
Doppler Factor

Next 0 passes for location: London (51.5072 / 0.1276)

Sorry there are no passes over London.